sat.trackr.live / text

‹ back to catalog

STARLINK-5488

NORAD 57250 · 2023-094AJ

PAYLOAD ACTIVE UNKNOWN

§ Identity

Operator
Country
US
Launch date
2023-07-07
Launch site
AFWTR
Launch vehicle
Mass (kg)
RCS (m²)

Purposes: comms

External: N2YO · Heavens-Above · Gunter

§ Orbital elements

Epoch: 2026-09-20T13:26:24.353376Z

Period
94.27 min
Inclination
43.0030°
Eccentricity
0.0001300
Mean motion
15.27575051 rev/d
Perigee alt
482.2 km
Apogee alt
484.0 km
Semi-major
6,861.2 km
B*
2.6855e-5
RAAN
359.2979°
Arg perigee
269.6951°
Mean anomaly
90.3752°
Rev number
17,704

§ Raw data

STARLINK-54881 57250U 23094AJ  26263.56000409  .00000477  00000+0  26855-4 0  99972 57250  43.0030 359.2979 0001300 269.6951  90.3752 15.27575051177040

JSON: /api/v1/satellites/57250 · /tle

For live sub-satellite position, see the globe view (requires WebGL).

§ Visibility from observer

Set your observer location to see the next 7 days of passes ≥ 10°. The values pass through the URL so the page stays shareable.

No JS? Fill the form by hand. The geolocation button needs JavaScript.